TimeCDT,TemperatureF,Dew PointF,Humidity,Sea Level PressureIn,VisibilityMPH,Wind Direction,Wind SpeedMPH,Gust SpeedMPH,PrecipitationIn,Events,Conditions,WindDirDegrees,DateUTC
12:53 AM,30.9,28.9,92,29.42,0.8,NNE,21.9,29.9,0.03,Snow,Light Snow,30,2013-04-19 05:53:00
1:53 AM,30.9,28.9,92,29.40,0.8,NNE,20.7,28.8,0.04,Snow,Light Snow,30,2013-04-19 06:53:00
2:50 AM,30.2,28.4,93,29.37,0.5,NNE,26.5,33.4,0.03,Fog-Snow,Snow,20,2013-04-19 07:50:00
2:53 AM,30.0,28.0,92,29.40,0.5,NNE,20.7,33.4,0.03,Fog-Snow,Snow,20,2013-04-19 07:53:00
3:03 AM,30.2,28.4,93,29.37,0.5,NNE,21.9,27.6,0.00,Fog-Snow,Snow,20,2013-04-19 08:03:00
3:53 AM,28.9,27.0,92,29.40,0.5,NNE,21.9,28.8,0.02,Fog-Snow,Snow,20,2013-04-19 08:53:00
4:53 AM,28.9,27.0,92,29.41,1.0,North,17.3,26.5,0.00,,Mist,360,2013-04-19 09:53:00
5:40 AM,28.4,24.8,86,29.37,1.2,North,21.9,31.1,N/A,,Overcast,10,2013-04-19 10:40:00
5:53 AM,28.0,25.0,88,29.41,1.2,North,21.9,29.9,N/A,,Overcast,360,2013-04-19 10:53:00
6:28 AM,26.6,24.8,93,29.39,0.8,North,18.4,29.9,N/A,,Overcast,360,2013-04-19 11:28:00
6:43 AM,26.6,24.8,93,29.39,0.8,North,19.6,28.8,N/A,,Overcast,360,2013-04-19 11:43:00
6:53 AM,27.0,25.0,92,29.43,0.8,North,21.9,27.6,N/A,,Overcast,10,2013-04-19 11:53:00
6:57 AM,26.6,24.8,93,29.40,0.8,North,21.9,27.6,N/A,,Overcast,10,2013-04-19 11:57:00
7:04 AM,26.6,24.8,93,29.40,1.0,North,18.4,-,N/A,,Overcast,360,2013-04-19 12:04:00
7:18 AM,26.6,24.8,93,29.40,0.8,North,21.9,31.1,N/A,,Overcast,360,2013-04-19 12:18:00
7:46 AM,26.6,23.0,86,29.41,1.0,North,20.7,28.8,N/A,,Overcast,360,2013-04-19 12:46:00
7:53 AM,27.0,23.0,85,29.44,1.0,North,18.4,28.8,N/A,,Overcast,360,2013-04-19 12:53:00
8:40 AM,26.6,21.2,80,29.42,0.8,North,16.1,26.5,N/A,,Overcast,360,2013-04-19 13:40:00
8:53 AM,26.1,23.0,88,29.46,0.8,North,15.0,25.3,N/A,,Overcast,350,2013-04-19 13:53:00
9:00 AM,26.6,23.0,86,29.43,0.8,North,17.3,24.2,N/A,,Overcast,360,2013-04-19 14:00:00
9:17 AM,26.6,23.0,86,29.43,0.8,North,13.8,23.0,N/A,,Overcast,350,2013-04-19 14:17:00
9:51 AM,26.6,23.0,86,29.44,0.8,North,15.0,24.2,N/A,,Overcast,350,2013-04-19 14:51:00
9:53 AM,27.0,23.0,85,29.48,0.8,North,15.0,24.2,N/A,,Overcast,350,2013-04-19 14:53:00
9:58 AM,26.6,23.0,86,29.44,1.0,North,17.3,24.2,N/A,,Overcast,360,2013-04-19 14:58:00
10:02 AM,26.6,23.0,86,29.45,1.0,North,16.1,23.0,N/A,,Overcast,360,2013-04-19 15:02:00
10:14 AM,26.6,23.0,86,29.45,1.2,North,16.1,-,N/A,,Overcast,350,2013-04-19 15:14:00
10:26 AM,26.6,23.0,86,29.46,1.0,North,16.1,-,N/A,,Overcast,350,2013-04-19 15:26:00
10:53 AM,27.0,23.0,85,29.50,0.8,North,17.3,24.2,N/A,,Overcast,350,2013-04-19 15:53:00
11:16 AM,26.6,23.0,86,29.48,1.0,North,17.3,27.6,N/A,,Overcast,350,2013-04-19 16:16:00
11:53 AM,27.0,21.9,81,29.53,1.0,North,21.9,28.8,N/A,,Haze,360,2013-04-19 16:53:00
12:03 PM,28.4,21.2,74,29.50,3.0,North,16.1,28.8,N/A,,Haze,350,2013-04-19 17:03:00
12:11 PM,28.4,21.2,74,29.51,1.8,North,23.0,29.9,N/A,,Haze,350,2013-04-19 17:11:00
12:26 PM,28.4,21.2,74,29.51,2.5,NNW,16.1,26.5,N/A,,Haze,340,2013-04-19 17:26:00
12:35 PM,26.6,21.2,80,29.52,1.0,NNW,21.9,31.1,N/A,,Haze,340,2013-04-19 17:35:00
12:45 PM,28.4,21.2,74,29.53,3.0,North,18.4,26.5,N/A,,Haze,360,2013-04-19 17:45:00
12:53 PM,28.0,21.0,75,29.57,5.0,North,19.6,27.6,N/A,,Haze,360,2013-04-19 17:53:00
1:08 PM,28.4,21.2,74,29.54,3.0,North,17.3,24.2,N/A,,Haze,350,2013-04-19 18:08:00
1:15 PM,28.4,21.2,74,29.54,2.5,North,21.9,27.6,N/A,,Haze,360,2013-04-19 18:15:00
1:24 PM,26.6,21.2,80,29.55,0.8,North,19.6,31.1,N/A,,Haze,10,2013-04-19 18:24:00
1:34 PM,26.6,23.0,86,29.55,0.5,North,15.0,-,N/A,Fog,Light Freezing Fog,10,2013-04-19 18:34:00
1:49 PM,28.4,23.0,80,29.56,1.0,North,17.3,25.3,0.01,,Haze,360,2013-04-19 18:49:00
1:50 PM,28.0,23.0,81,29.60,1.0,North,19.6,26.5,0.01,,Haze,10,2013-04-19 18:50:00
1:55 PM,28.4,21.2,74,29.56,3.0,North,16.1,26.5,N/A,,Haze,10,2013-04-19 18:55:00
2:00 PM,26.6,21.2,80,29.57,2.5,North,16.1,-,N/A,,Haze,10,2013-04-19 19:00:00
2:05 PM,26.6,21.2,80,29.57,0.8,North,17.3,-,N/A,,Haze,350,2013-04-19 19:05:00
2:22 PM,28.4,21.2,74,29.58,1.8,North,16.1,-,N/A,,Haze,10,2013-04-19 19:22:00
2:26 PM,28.4,21.2,74,29.58,3.0,North,17.3,24.2,N/A,,Haze,10,2013-04-19 19:26:00
2:31 PM,26.6,21.2,80,29.59,1.8,North,16.1,24.2,N/A,,Haze,360,2013-04-19 19:31:00
2:37 PM,26.6,23.0,86,29.60,0.5,North,17.3,24.2,N/A,Fog,Light Freezing Fog,360,2013-04-19 19:37:00
2:51 PM,28.4,23.0,80,29.61,1.0,North,16.1,-,N/A,,Haze,350,2013-04-19 19:51:00
2:53 PM,28.0,23.0,81,29.64,1.2,NNW,16.1,-,N/A,,Haze,340,2013-04-19 19:53:00
3:03 PM,26.6,23.0,86,29.61,0.5,NNW,17.3,25.3,N/A,Fog,Light Freezing Fog,340,2013-04-19 20:03:00
3:12 PM,28.4,23.0,80,29.62,1.0,North,17.3,27.6,N/A,,Haze,360,2013-04-19 20:12:00
3:26 PM,28.4,23.0,80,29.63,0.8,North,13.8,21.9,N/A,,Haze,350,2013-04-19 20:26:00
3:41 PM,28.4,21.2,74,29.64,1.8,NNW,16.1,25.3,N/A,,Haze,340,2013-04-19 20:41:00
3:53 PM,28.9,23.0,78,29.69,1.5,North,17.3,21.9,N/A,,Haze,360,2013-04-19 20:53:00
4:07 PM,28.4,21.2,74,29.66,0.8,North,15.0,29.9,0.00,Snow,Light Snow,10,2013-04-19 21:07:00
4:14 PM,28.4,21.2,74,29.67,2.0,North,19.6,-,0.00,,Haze,350,2013-04-19 21:14:00
4:20 PM,26.6,21.2,80,29.67,0.8,North,21.9,27.6,0.00,Snow,Light Snow,350,2013-04-19 21:20:00
4:29 PM,28.4,21.2,74,29.68,1.8,North,15.0,26.5,0.00,Snow,Light Snow,350,2013-04-19 21:29:00
4:31 PM,28.4,21.2,74,29.68,3.0,North,15.0,26.5,0.00,,Haze,350,2013-04-19 21:31:00
4:42 PM,28.4,21.2,74,29.69,2.0,North,20.7,27.6,0.00,,Haze,360,2013-04-19 21:42:00
4:46 PM,26.6,21.2,80,29.70,0.8,NNW,23.0,31.1,0.00,Snow,Light Snow,340,2013-04-19 21:46:00
4:53 PM,28.0,21.9,78,29.74,0.8,NNW,17.3,31.1,0.00,Snow,Light Snow,340,2013-04-19 21:53:00
5:06 PM,28.4,21.2,74,29.71,2.0,North,19.6,27.6,0.00,Snow,Light Snow,360,2013-04-19 22:06:00
5:11 PM,28.4,19.4,69,29.71,5.0,North,15.0,28.8,0.00,,Haze,360,2013-04-19 22:11:00
5:32 PM,28.4,19.4,69,29.74,1.8,NNW,18.4,33.4,0.00,,Haze,340,2013-04-19 22:32:00
5:39 PM,28.4,19.4,69,29.74,4.0,North,13.8,28.8,0.00,,Haze,350,2013-04-19 22:39:00
5:53 PM,28.0,19.0,69,29.79,7.0,North,16.1,26.5,0.00,,Overcast,360,2013-04-19 22:53:00
6:02 PM,26.6,19.4,74,29.77,2.0,North,13.8,28.8,0.00,Snow,Light Snow,350,2013-04-19 23:02:00
6:09 PM,26.6,21.2,80,29.77,1.8,NNW,15.0,21.9,0.00,Snow,Light Snow,340,2013-04-19 23:09:00
6:11 PM,28.4,21.2,74,29.77,2.0,North,12.7,21.9,0.00,Snow,Light Snow,350,2013-04-19 23:11:00
6:19 PM,28.4,19.4,69,29.78,9.0,North,13.8,20.7,0.00,,Overcast,350,2013-04-19 23:19:00
6:26 PM,26.6,19.4,74,29.78,2.5,North,16.1,-,0.00,Snow,Light Snow,350,2013-04-19 23:26:00
6:35 PM,26.6,21.2,80,29.79,0.8,NNW,17.3,24.2,0.00,Snow,Light Snow,340,2013-04-19 23:35:00
6:48 PM,26.6,21.2,80,29.80,2.5,North,15.0,21.9,0.00,Snow,Light Snow,350,2013-04-19 23:48:00
6:53 PM,27.0,19.9,75,29.84,3.0,North,19.6,27.6,0.00,Snow,Light Snow,350,2013-04-19 23:53:00
7:04 PM,28.4,19.4,69,29.81,6.0,NNW,12.7,27.6,0.00,,Haze,340,2013-04-20 00:04:00
7:53 PM,27.0,18.0,69,29.88,10.0,North,17.3,23.0,0.00,,Overcast,350,2013-04-20 00:53:00
8:53 PM,27.0,18.0,69,29.91,8.0,North,18.4,25.3,N/A,,Overcast,350,2013-04-20 01:53:00
9:53 PM,26.1,16.0,66,29.94,10.0,North,5.8,-,N/A,,Overcast,360,2013-04-20 02:53:00
10:53 PM,21.9,15.1,75,29.95,10.0,NW,4.6,-,N/A,,Mostly Cloudy,310,2013-04-20 03:53:00
11:53 PM,18.0,14.0,84,29.98,10.0,West,4.6,-,N/A,,Partly Cloudy,270,2013-04-20 04:53:00